Location: Laura�t
(43.9341°N, 0.2497°E)
Time: 23:45:20
(UTC+00:00)

Cosmos 1727 Rocket - Pass Details

Date: 03 March 2021
Orbit: 961 x 996 km, 82.9° (Epoch: 17 April)

Event Time Altitude Azimuth Distance (km) Brightness Sun altitude
Rises 20:28:03 0° 349° (N) 3,657 7.4 -28.8°
Reaches altitude 10° 20:30:34 10° 348° (NNW) 2,708 6.7 -29.2°
Maximum altitude 20:36:43 71° 266° (W) 1,018 4.1 -30.2°
Enters shadow 20:37:44 60° 212° (SSW) 1,099 4.2 -30.4°
